Lid_Strength_Index
17 16 17 18 18 22 25 21 23 19 22 18 17 17 17 18 18 18 17 17 17 17 17 19 20 19 20 19 18 17 17 15 14 13 12 12 13 12 11 11 11 10 10 8
21 17 17 19 18 18 21 21 21 21 22 17 17 17 18 18 18 18 17 17 17 17 17 18 19 19 19 19 19 18 17 16 14 14 13 13 13 13 13 13 13 12 12 12
21 19 19 20 17 17 17 20 20 23 19 17 18 17 17 17 17 18 17 17 18 17 18 18 18 19 20 20 19 18 17 16 15 15 15 14 14 14 15 15 14 14 13 13
21 20 23 16 14 15 16 17 18 19 18 17 18 17 17 16 17 17 17 18 18 17 18 18 18 18 19 19 18 18 17 16 15 16 16 15 15 15 15 14 15 16 15 13
22 22 18 15 17 17 17 15 15 18 17 17 17 18 16 16 16 16 17 17 17 17 17 18 18 18 19 19 19 18 17 17 16 16 17 16 16 16 16 15 15 16 15 14
21 23 22 15 16 15 15 17 15 16 17 17 18 18 15 16 17 17 17 17 18 18 18 18 18 18 19 19 19 19 18 17 16 15 16 17 16 15 14 14 15 15 15 15
19 20 18 13 14 14 18 16 15 15 15 15 16 14 14 16 17 17 17 17 18 18 19 18 18 18 19 19 19 19 18 17 16 15 15 16 16 14 14 14 15 14 15 15
18 20 21 14 15 17 14 13 13 13 13 15 15 14 15 15 16 17 18 18 17 18 19 18 18 19 19 19 19 19 19 18 17 16 16 15 15 16 14 14 15 15 15 14
15 14 10 12 12 12 13 14 13 13 13 15 17 16 15 16 16 17 17 17 18 18 18 18 18 19 19 19 19 19 19 19 18 17 17 16 15 15 14 14 14 15 14 14
14 11 11 10 10 10 11 12 12 12 12 14 15 15 15 16 16 17 17 18 18 19 19 19 19 19 18 19 19 19 19 19 19 18 17 17 16 14 14 14 14 14 15 15
13 11 11 10 9 10 11 12 13 12 12 13 15 16 15 16 17 17 18 18 18 19 19 19 19 19 19 19 19 20 20 20 19 19 19 18 17 16 15 13 13 14 14 14
15 12 12 12 11 11 12 12 11 11 11 12 14 15 15 17 17 17 18 19 20 19 20 20 20 19 19 19 19 19 20 20 20 19 19 19 19 18 15 14 13 13 13 13
11 10 11 11 11 10 11 11 11 11 12 14 13 15 16 17 17 18 18 21 21 21 21 21 21 21 20 20 19 20 20 20 20 20 20 20 19 19 19 17 16 15 14 14
8 9 11 12 13 11 11 11 11 12 12 13 14 15 16 17 18 19 19 20 21 22 23 23 22 22 21 21 20 21 20 20 19 19 19 19 20 20 19 20 20 19 16 16
8 9 9 9 10 10 10 10 11 12 12 12 14 14 16 17 18 19 20 21 22 23 24 24 23 23 24 23 22 22 21 20 20 20 20 19 19 20 20 20 20 20 18 17
9 9 10 11 10 10 10 11 12 12 12 12 12 13 14 16 18 19 21 23 22 21 23 23 22 23 25 24 23 22 22 21 20 20 19 19 19 20 20 20 20 20 20 19
11 12 12 12 12 11 12 12 12 12 12 12 12 12 15 17 18 20 21 22 22 23 22 22 22 23 24 23 22 21 20 20 19 19 19 19 19 20 20 20 20 20 20 19
10 10 10 11 12 12 12 12 12 12 12 11 12 13 15 17 18 19 21 22 22 23 22 22 22 22 22 22 21 21 21 20 20 19 19 19 19 19 20 20 20 20 20 20
10 11 11 12 12 12 12 13 12 12 12 12 13 14 15 16 17 20 21 22 21 21 21 21 18 20 20 21 20 20 20 20 20 20 19 19 19 19 19 19 20 20 20 20
11 12 13 13 13 13 14 13 13 14 13 14 15 16 17 18 19 20 20 20 20 19 19 18 18 18 19 19 18 20 20 20 20 20 20 19 19 19 19 20 19 20 20 20
12 13 14 14 14 14 15 16 16 15 15 15 15 16 17 18 19 19 19 20 19 17 17 17 17 18 18 17 18 19 19 20 20 20 20 19 19 19 19 20 20 20 20 20
14 14 14 14 15 15 15 16 16 15 16 16 17 17 18 19 19 19 18 18 17 15 17 17 17 17 17 17 18 19 19 19 19 20 20 19 19 20 20 20 20 20 20 20
16 15 15 15 16 16 16 17 17 16 17 17 17 18 18 18 17 18 19 17 16 16 17 17 17 14 14 18 18 19 19 19 20 20 20 20 20 20 20 20 20 20 20 21
17 16 17 17 17 17 18 17 17 17 17 17 17 17 18 18 18 17 15 15 15 16 16 15 16 16 18 19 19 20 20 20 19 19 19 19 20 20 20 20 21 20 20 20
16 16 16 17 18 18 18 18 18 18 18 19 18 18 18 18 17 18 17 15 15 17 16 15 16 18 19 20 20 20 20 19 19 19 20 20 20 20 20 19 20 19 18 18
17 15 16 16 16 16 17 17 18 18 18 19 19 19 18 17 16 18 17 18 18 17 19 19 19 19 20 20 20 20 20 20 20 20 18 19 19 19 19 19 19 18 17 17
17 15 16 16 16 16 15 16 17 18 18 18 19 18 18 17 17 18 18 19 20 20 19 19 19 19 20 20 20 20 20 20 19 17 18 19 19 19 19 18 17 17 16 16